Year,Month,Day,Hour,Minute,Value (Times are PST for temperature in C)
2012,04,02,00,00,5.10
2012,04,02,00,01,5.10
2012,04,02,00,02,5.10
2012,04,02,00,03,5.10
2012,04,02,00,04,5.10
2012,04,02,00,05,5.10
2012,04,02,00,06,5.20
2012,04,02,00,07,5.20
2012,04,02,00,08,5.10
2012,04,02,00,09,5.10
2012,04,02,00,10,5.10
2012,04,02,00,11,5.10
2012,04,02,00,12,5.10
2012,04,02,00,13,5.10
2012,04,02,00,14,5.10
2012,04,02,00,15,5.10
2012,04,02,00,16,5.20
2012,04,02,00,17,5.10
2012,04,02,00,18,5.10
2012,04,02,00,19,5.10
2012,04,02,00,20,5.10
2012,04,02,00,21,5.10
2012,04,02,00,22,5.10
2012,04,02,00,23,5.10
2012,04,02,00,24,5.10
2012,04,02,00,25,5.10
2012,04,02,00,26,5.10
2012,04,02,00,27,5.10
2012,04,02,00,28,5.10
2012,04,02,00,29,5.00
2012,04,02,00,30,4.90
2012,04,02,00,31,4.90
2012,04,02,00,32,4.90
2012,04,02,00,33,4.90
2012,04,02,00,34,4.90
2012,04,02,00,35,4.90
2012,04,02,00,36,4.90
2012,04,02,00,37,4.90
2012,04,02,00,38,4.90
2012,04,02,00,39,4.90
2012,04,02,00,40,4.90
2012,04,02,00,41,4.90
2012,04,02,00,42,4.90
2012,04,02,00,43,4.90
2012,04,02,00,44,4.90
2012,04,02,00,45,4.90
2012,04,02,00,46,4.90
2012,04,02,00,47,4.90
2012,04,02,00,48,4.90
2012,04,02,00,49,4.90
2012,04,02,00,50,4.90
2012,04,02,00,51,4.90
2012,04,02,00,52,4.90
2012,04,02,00,53,4.90
2012,04,02,00,54,4.90
2012,04,02,00,55,4.90
2012,04,02,00,56,4.90
2012,04,02,00,57,4.90
2012,04,02,00,58,4.90
2012,04,02,00,59,4.90
2012,04,02,01,00,4.90
2012,04,02,01,01,4.90
2012,04,02,01,02,4.90
2012,04,02,01,03,4.90
2012,04,02,01,04,4.90
2012,04,02,01,05,4.90
2012,04,02,01,06,4.90
2012,04,02,01,07,4.90
2012,04,02,01,08,4.90
2012,04,02,01,09,4.90
2012,04,02,01,10,4.90
2012,04,02,01,11,4.90
2012,04,02,01,12,4.90
2012,04,02,01,13,4.90
2012,04,02,01,14,4.90
2012,04,02,01,15,4.90
2012,04,02,01,16,4.90
2012,04,02,01,17,4.90
2012,04,02,01,18,4.90
2012,04,02,01,19,4.90
2012,04,02,01,20,4.90
2012,04,02,01,21,4.90
2012,04,02,01,22,4.90
2012,04,02,01,23,4.80
2012,04,02,01,24,4.80
2012,04,02,01,25,4.80
2012,04,02,01,26,4.80
2012,04,02,01,27,4.80
2012,04,02,01,28,4.80
2012,04,02,01,29,4.80
2012,04,02,01,30,4.80
2012,04,02,01,31,4.80
2012,04,02,01,32,4.80
2012,04,02,01,33,4.70
2012,04,02,01,34,4.70
2012,04,02,01,35,4.70
2012,04,02,01,36,4.70
2012,04,02,01,37,4.80
2012,04,02,01,38,4.80
2012,04,02,01,39,4.80
2012,04,02,01,40,4.80
2012,04,02,01,41,4.80
2012,04,02,01,42,4.80
2012,04,02,01,43,4.80
2012,04,02,01,44,4.80
2012,04,02,01,45,4.80
2012,04,02,01,46,4.80
2012,04,02,01,47,4.80
2012,04,02,01,48,4.70
2012,04,02,01,49,4.70
2012,04,02,01,50,4.70
2012,04,02,01,51,4.70
2012,04,02,01,52,4.70
2012,04,02,01,53,4.70
2012,04,02,01,54,4.70
2012,04,02,01,55,4.70
2012,04,02,01,56,4.70
2012,04,02,01,57,4.70
2012,04,02,01,58,4.70
2012,04,02,01,59,4.70
2012,04,02,02,00,4.70
2012,04,02,02,01,4.70
2012,04,02,02,02,4.70
2012,04,02,02,03,4.80
2012,04,02,02,04,4.80
2012,04,02,02,05,4.80
2012,04,02,02,06,4.80
2012,04,02,02,07,4.80
2012,04,02,02,08,4.80
2012,04,02,02,09,4.80
2012,04,02,02,10,4.80
2012,04,02,02,11,4.90
2012,04,02,02,12,4.90
2012,04,02,02,13,4.90
2012,04,02,02,14,4.90
2012,04,02,02,15,4.90
2012,04,02,02,16,4.90
2012,04,02,02,17,4.90
2012,04,02,02,18,4.90
2012,04,02,02,19,4.90
2012,04,02,02,20,4.90
2012,04,02,02,21,4.90
2012,04,02,02,22,4.90
2012,04,02,02,23,4.90
2012,04,02,02,24,4.90
2012,04,02,02,25,4.90
2012,04,02,02,26,4.90
2012,04,02,02,27,4.90
2012,04,02,02,28,5.10
2012,04,02,02,29,5.10
2012,04,02,02,30,5.10
2012,04,02,02,31,5.10
2012,04,02,02,32,5.10
2012,04,02,02,33,5.10
2012,04,02,02,34,5.10
2012,04,02,02,35,5.10
2012,04,02,02,36,5.10
2012,04,02,02,37,5.10
2012,04,02,02,38,5.10
2012,04,02,02,39,5.10
2012,04,02,02,40,5.10
2012,04,02,02,41,5.10
2012,04,02,02,42,5.10
2012,04,02,02,43,5.10
2012,04,02,02,44,5.10
2012,04,02,02,45,5.10
2012,04,02,02,46,5.10
2012,04,02,02,47,5.10
2012,04,02,02,48,5.10
2012,04,02,02,49,5.10
2012,04,02,02,50,5.10
2012,04,02,02,51,5.10
2012,04,02,02,52,5.10
2012,04,02,02,53,5.10
2012,04,02,02,54,5.10
2012,04,02,02,55,5.10
2012,04,02,02,56,5.10
2012,04,02,02,57,5.10
2012,04,02,02,58,5.10
2012,04,02,02,59,5.10
2012,04,02,03,00,5.10
2012,04,02,03,01,5.10
2012,04,02,03,02,5.10
2012,04,02,03,03,5.10
2012,04,02,03,04,5.10
2012,04,02,03,05,5.10
2012,04,02,03,06,5.10
2012,04,02,03,07,5.10
2012,04,02,03,08,5.10
2012,04,02,03,09,5.10
2012,04,02,03,10,5.10
2012,04,02,03,11,5.10
2012,04,02,03,12,5.10
2012,04,02,03,13,5.10
2012,04,02,03,14,5.10
2012,04,02,03,15,5.10
2012,04,02,03,16,5.10
2012,04,02,03,17,5.10
2012,04,02,03,18,5.10
2012,04,02,03,19,5.10
2012,04,02,03,20,5.10
2012,04,02,03,21,5.10
2012,04,02,03,22,5.10
2012,04,02,03,23,5.20
2012,04,02,03,24,5.20
2012,04,02,03,25,5.20
2012,04,02,03,26,5.20
2012,04,02,03,27,5.20
2012,04,02,03,28,5.20
2012,04,02,03,29,5.20
2012,04,02,03,30,5.20
2012,04,02,03,31,5.20
2012,04,02,03,32,5.20
2012,04,02,03,33,5.20
2012,04,02,03,34,5.20
2012,04,02,03,35,5.20
2012,04,02,03,36,5.20
2012,04,02,03,37,5.20
2012,04,02,03,38,5.20
2012,04,02,03,39,5.20
2012,04,02,03,40,5.20
2012,04,02,03,41,5.20
2012,04,02,03,42,5.30
2012,04,02,03,43,5.30
2012,04,02,03,44,5.30
2012,04,02,03,45,5.30
2012,04,02,03,46,5.30
2012,04,02,03,47,5.30
2012,04,02,03,48,5.30
2012,04,02,03,49,5.30
2012,04,02,03,50,5.30
2012,04,02,03,51,5.30
2012,04,02,03,52,5.40
2012,04,02,03,53,5.40
2012,04,02,03,54,5.40
2012,04,02,03,55,5.40
2012,04,02,03,56,5.40
2012,04,02,03,57,5.40
2012,04,02,03,58,5.40
2012,04,02,03,59,5.40
2012,04,02,04,00,5.40
2012,04,02,04,01,5.50
2012,04,02,04,02,5.50
2012,04,02,04,03,5.50
2012,04,02,04,04,5.50
2012,04,02,04,05,5.50
2012,04,02,04,06,5.60
2012,04,02,04,07,5.60
2012,04,02,04,08,5.60
2012,04,02,04,09,5.60
2012,04,02,04,10,5.60
2012,04,02,04,11,5.60
2012,04,02,04,12,5.60
2012,04,02,04,13,5.60
2012,04,02,04,14,5.60
2012,04,02,04,15,5.60
2012,04,02,04,16,5.70
2012,04,02,04,17,5.70
2012,04,02,04,18,5.70
2012,04,02,04,19,5.70
2012,04,02,04,20,5.70
2012,04,02,04,21,5.70
2012,04,02,04,22,5.70
2012,04,02,04,23,5.70
2012,04,02,04,24,5.70
2012,04,02,04,25,5.70
2012,04,02,04,26,5.70
2012,04,02,04,27,5.70
2012,04,02,04,28,5.70
2012,04,02,04,29,5.70
2012,04,02,04,30,5.70
2012,04,02,04,31,5.70
2012,04,02,04,32,5.70
2012,04,02,04,33,5.70
2012,04,02,04,34,5.70
2012,04,02,04,35,5.70
2012,04,02,04,36,5.70
2012,04,02,04,37,5.70
2012,04,02,04,38,5.70
2012,04,02,04,39,5.70
2012,04,02,04,40,5.70
2012,04,02,04,41,5.70
2012,04,02,04,42,5.70
2012,04,02,04,43,5.70
2012,04,02,04,44,5.70
2012,04,02,04,45,5.70
2012,04,02,04,46,5.70
2012,04,02,04,47,5.70
2012,04,02,04,48,5.70
2012,04,02,04,49,5.70
2012,04,02,04,50,5.70
2012,04,02,04,51,5.70
2012,04,02,04,52,5.60
2012,04,02,04,53,5.60
2012,04,02,04,54,5.60
2012,04,02,04,55,5.60
2012,04,02,04,56,5.60
2012,04,02,04,57,5.60
2012,04,02,04,58,5.60
2012,04,02,04,59,5.60
2012,04,02,05,00,5.60
2012,04,02,05,01,5.50
2012,04,02,05,02,5.50
2012,04,02,05,03,5.50
2012,04,02,05,04,5.50
2012,04,02,05,05,5.50
2012,04,02,05,06,5.50
2012,04,02,05,07,5.50
2012,04,02,05,08,5.50
2012,04,02,05,09,5.50
2012,04,02,05,10,5.50
2012,04,02,05,11,5.60
2012,04,02,05,12,5.60
2012,04,02,05,13,5.60
2012,04,02,05,14,5.60
2012,04,02,05,15,5.60
2012,04,02,05,16,5.60
2012,04,02,05,17,5.60
2012,04,02,05,18,5.60
2012,04,02,05,19,5.60
2012,04,02,05,20,5.60
2012,04,02,05,21,5.60
2012,04,02,05,22,5.60
2012,04,02,05,23,5.60
2012,04,02,05,24,5.60
2012,04,02,05,25,5.50
2012,04,02,05,26,5.50
2012,04,02,05,27,5.50
2012,04,02,05,28,5.50
2012,04,02,05,29,5.50
2012,04,02,05,30,5.50
2012,04,02,05,31,5.50
2012,04,02,05,32,5.50
2012,04,02,05,33,5.50
2012,04,02,05,34,5.50
2012,04,02,05,35,5.50
2012,04,02,05,36,5.50
2012,04,02,05,37,5.50
2012,04,02,05,38,5.50
2012,04,02,05,39,5.50
2012,04,02,05,40,5.60
2012,04,02,05,41,5.60
2012,04,02,05,42,5.60
2012,04,02,05,43,5.60
2012,04,02,05,44,5.60
2012,04,02,05,45,5.60
2012,04,02,05,46,5.60
2012,04,02,05,47,5.60
2012,04,02,05,48,5.60
2012,04,02,05,49,5.60
2012,04,02,05,50,5.60
2012,04,02,05,51,5.60
2012,04,02,05,52,5.60
2012,04,02,05,53,5.60
2012,04,02,05,54,5.60
2012,04,02,05,55,5.60
2012,04,02,05,56,5.60
2012,04,02,05,57,5.60
2012,04,02,05,58,5.60
2012,04,02,05,59,5.60
2012,04,02,06,00,5.60
2012,04,02,06,01,5.60
2012,04,02,06,02,5.50
2012,04,02,06,03,5.50
2012,04,02,06,04,5.50
2012,04,02,06,05,5.50
2012,04,02,06,06,5.50
2012,04,02,06,07,5.50
2012,04,02,06,08,5.50
2012,04,02,06,09,5.50
2012,04,02,06,10,5.50
2012,04,02,06,11,5.60
2012,04,02,06,12,5.60
2012,04,02,06,13,5.60
2012,04,02,06,14,5.60
2012,04,02,06,15,5.60
2012,04,02,06,16,5.60
2012,04,02,06,17,5.70
2012,04,02,06,18,5.70
2012,04,02,06,19,5.70
2012,04,02,06,20,5.70
2012,04,02,06,21,5.70
2012,04,02,06,22,5.70
2012,04,02,06,23,5.70
2012,04,02,06,24,5.70
2012,04,02,06,25,5.70
2012,04,02,06,26,5.70
2012,04,02,06,27,5.70
2012,04,02,06,28,5.70
2012,04,02,06,29,5.70
2012,04,02,06,30,5.70
2012,04,02,06,31,5.70
2012,04,02,06,32,5.70
2012,04,02,06,33,5.70
2012,04,02,06,34,5.70
2012,04,02,06,35,5.70
2012,04,02,06,36,5.80
2012,04,02,06,37,5.80
2012,04,02,06,38,5.80
2012,04,02,06,39,5.90
2012,04,02,06,40,5.90
2012,04,02,06,41,5.90
2012,04,02,06,42,6.00
2012,04,02,06,43,6.00
2012,04,02,06,44,6.00
2012,04,02,06,45,6.10
2012,04,02,06,46,6.10
2012,04,02,06,47,6.10
2012,04,02,06,48,6.10
2012,04,02,06,49,6.20
2012,04,02,06,50,6.20
2012,04,02,06,51,6.20
2012,04,02,06,52,6.20
2012,04,02,06,53,6.20
2012,04,02,06,54,6.20
2012,04,02,06,55,6.20
2012,04,02,06,56,6.20
2012,04,02,06,57,6.20
2012,04,02,06,58,6.20
2012,04,02,06,59,6.20
2012,04,02,07,00,6.20
2012,04,02,07,01,6.20
2012,04,02,07,02,6.20
2012,04,02,07,03,6.20
2012,04,02,07,04,6.20
2012,04,02,07,05,6.20
2012,04,02,07,06,6.20
2012,04,02,07,07,6.20
2012,04,02,07,08,6.20
2012,04,02,07,09,6.20
2012,04,02,07,10,6.20
2012,04,02,07,11,6.20
2012,04,02,07,12,6.20
2012,04,02,07,13,6.20
2012,04,02,07,14,6.20
2012,04,02,07,15,6.20
2012,04,02,07,16,6.20
2012,04,02,07,17,6.20
2012,04,02,07,18,6.20
2012,04,02,07,19,6.20
2012,04,02,07,20,6.20
2012,04,02,07,21,6.20
2012,04,02,07,22,6.20
2012,04,02,07,23,6.10
2012,04,02,07,24,6.10
2012,04,02,07,25,6.10
2012,04,02,07,26,6.10
2012,04,02,07,27,6.10
2012,04,02,07,28,6.10
2012,04,02,07,29,6.10
2012,04,02,07,30,6.10
2012,04,02,07,31,6.10
2012,04,02,07,32,6.20
2012,04,02,07,33,6.20
2012,04,02,07,34,6.20
2012,04,02,07,35,6.20
2012,04,02,07,36,6.20
2012,04,02,07,37,6.20
2012,04,02,07,38,6.20
2012,04,02,07,39,6.20
2012,04,02,07,40,6.20
2012,04,02,07,41,6.20
2012,04,02,07,42,6.20
2012,04,02,07,43,6.20
2012,04,02,07,44,6.30
2012,04,02,07,45,6.30
2012,04,02,07,46,6.30
2012,04,02,07,47,6.30
2012,04,02,07,48,6.30
2012,04,02,07,49,6.30
2012,04,02,07,50,6.30
2012,04,02,07,51,6.30
2012,04,02,07,52,6.40
2012,04,02,07,53,6.40
2012,04,02,07,54,6.40
2012,04,02,07,55,6.40
2012,04,02,07,56,6.40
2012,04,02,07,57,6.40
2012,04,02,07,58,6.40
2012,04,02,07,59,6.40
2012,04,02,08,00,6.40
2012,04,02,08,01,6.40
2012,04,02,08,02,6.40
2012,04,02,08,03,6.40
2012,04,02,08,04,6.40
2012,04,02,08,05,6.40
2012,04,02,08,06,6.60
2012,04,02,08,07,6.60
2012,04,02,08,08,6.60
2012,04,02,08,09,6.60
2012,04,02,08,10,6.60
2012,04,02,08,11,6.60
2012,04,02,08,12,6.60
2012,04,02,08,13,6.70
2012,04,02,08,14,6.70
2012,04,02,08,15,6.70
2012,04,02,08,16,6.80
2012,04,02,08,17,6.80
2012,04,02,08,18,6.80
2012,04,02,08,19,6.80
2012,04,02,08,20,6.80
2012,04,02,08,21,6.90
2012,04,02,08,22,6.90
2012,04,02,08,23,7.00
2012,04,02,08,24,7.00
2012,04,02,08,25,7.00
2012,04,02,08,26,7.00
2012,04,02,08,27,7.10
2012,04,02,08,28,7.10
2012,04,02,08,29,7.10
2012,04,02,08,30,7.20
2012,04,02,08,31,7.20
2012,04,02,08,32,7.20
2012,04,02,08,33,7.20
2012,04,02,08,34,7.20
2012,04,02,08,35,7.20
2012,04,02,08,36,7.10
2012,04,02,08,37,7.10
2012,04,02,08,38,7.20
2012,04,02,08,39,7.20
2012,04,02,08,40,7.20
2012,04,02,08,41,7.30
2012,04,02,08,42,7.30
2012,04,02,08,43,7.30
2012,04,02,08,44,7.30
2012,04,02,08,45,7.30
2012,04,02,08,46,7.40
2012,04,02,08,47,7.40
2012,04,02,08,48,7.40
2012,04,02,08,49,7.30
2012,04,02,08,50,7.30
2012,04,02,08,51,7.30
2012,04,02,08,52,7.30
2012,04,02,08,53,7.30
2012,04,02,08,54,7.30
2012,04,02,08,55,7.30
2012,04,02,08,56,7.30
2012,04,02,08,57,7.20
2012,04,02,08,58,7.20
2012,04,02,08,59,7.30
2012,04,02,09,00,7.30
2012,04,02,09,01,7.30
2012,04,02,09,02,7.30
2012,04,02,09,03,7.30
2012,04,02,09,04,7.30
2012,04,02,09,05,7.30
2012,04,02,09,06,7.30
2012,04,02,09,07,7.30
2012,04,02,09,08,7.30
2012,04,02,09,09,7.30
2012,04,02,09,10,7.40
2012,04,02,09,11,7.40
2012,04,02,09,12,7.40
2012,04,02,09,13,7.40
2012,04,02,09,14,7.40
2012,04,02,09,15,7.40
2012,04,02,09,16,7.50
2012,04,02,09,17,7.50
2012,04,02,09,18,7.50
2012,04,02,09,19,7.50
2012,04,02,09,20,7.50
2012,04,02,09,21,7.50
2012,04,02,09,22,7.50
2012,04,02,09,23,7.50
2012,04,02,09,24,7.60
2012,04,02,09,25,7.60
2012,04,02,09,26,7.60
2012,04,02,09,27,7.60
2012,04,02,09,28,7.50
2012,04,02,09,29,7.50
2012,04,02,09,30,7.50
2012,04,02,09,31,7.60
2012,04,02,09,32,7.60
2012,04,02,09,33,7.60
2012,04,02,09,34,7.60
2012,04,02,09,35,7.60
2012,04,02,09,36,7.60
2012,04,02,09,37,7.60
2012,04,02,09,38,7.70
2012,04,02,09,39,7.70
2012,04,02,09,40,7.80
2012,04,02,09,41,7.80
2012,04,02,09,42,7.80
2012,04,02,09,43,7.90
2012,04,02,09,44,7.90
2012,04,02,09,45,7.90
2012,04,02,09,46,8.00
2012,04,02,09,47,8.00
2012,04,02,09,48,8.00
2012,04,02,09,49,8.00
2012,04,02,09,50,8.00
2012,04,02,09,51,8.00
2012,04,02,09,52,8.00
2012,04,02,09,53,8.00
2012,04,02,09,54,8.10
2012,04,02,09,55,8.10
2012,04,02,09,56,8.20
2012,04,02,09,57,8.20
2012,04,02,09,58,8.10
2012,04,02,09,59,8.10
2012,04,02,10,00,8.10
2012,04,02,10,01,8.10
2012,04,02,10,02,8.20
2012,04,02,10,03,8.20
2012,04,02,10,04,8.20
2012,04,02,10,05,8.30
2012,04,02,10,06,8.20
2012,04,02,10,07,8.20
2012,04,02,10,08,8.20
2012,04,02,10,09,8.20
2012,04,02,10,10,8.20
2012,04,02,10,11,8.20
2012,04,02,10,12,8.20
2012,04,02,10,13,8.30
2012,04,02,10,14,8.30
2012,04,02,10,15,8.30
2012,04,02,10,16,8.40
2012,04,02,10,17,8.40
2012,04,02,10,18,8.40
2012,04,02,10,19,8.40
2012,04,02,10,20,8.40
2012,04,02,10,21,8.40
2012,04,02,10,22,8.40
2012,04,02,10,23,8.40
2012,04,02,10,24,8.40
2012,04,02,10,25,8.40
2012,04,02,10,26,8.40
2012,04,02,10,27,8.30
2012,04,02,10,28,8.30
2012,04,02,10,29,8.40
2012,04,02,10,30,8.40
2012,04,02,10,31,8.40
2012,04,02,10,32,8.50
2012,04,02,10,33,8.50
2012,04,02,10,34,8.50
2012,04,02,10,35,8.50
2012,04,02,10,36,8.50
2012,04,02,10,37,8.50
2012,04,02,10,38,8.50
2012,04,02,10,39,8.50
2012,04,02,10,40,8.50
2012,04,02,10,41,8.50
2012,04,02,10,42,8.50
2012,04,02,10,43,8.60
2012,04,02,10,44,8.60
2012,04,02,10,45,8.70
2012,04,02,10,46,8.70
2012,04,02,10,47,8.70
2012,04,02,10,48,8.70
2012,04,02,10,49,8.70
2012,04,02,10,50,8.70
2012,04,02,10,51,8.80
2012,04,02,10,52,8.90
2012,04,02,10,53,8.90
2012,04,02,10,54,8.90
2012,04,02,10,55,9.00
2012,04,02,10,56,9.10
2012,04,02,10,57,9.10
2012,04,02,10,58,9.10
2012,04,02,10,59,9.20
2012,04,02,11,00,9.20
2012,04,02,11,01,9.20
2012,04,02,11,02,9.20
2012,04,02,11,03,9.20
2012,04,02,11,04,9.20
2012,04,02,11,05,9.20
2012,04,02,11,06,9.20
2012,04,02,11,07,9.20
2012,04,02,11,08,9.20
2012,04,02,11,09,9.20
2012,04,02,11,10,9.20
2012,04,02,11,11,9.10
2012,04,02,11,12,9.10
2012,04,02,11,13,9.10
2012,04,02,11,14,9.20
2012,04,02,11,15,9.20
2012,04,02,11,16,9.20
2012,04,02,11,17,9.10
2012,04,02,11,18,9.20
2012,04,02,11,19,9.20
2012,04,02,11,20,9.20
2012,04,02,11,21,9.30
2012,04,02,11,22,9.40
2012,04,02,11,23,9.40
2012,04,02,11,24,9.50
2012,04,02,11,25,9.50
2012,04,02,11,26,9.50
2012,04,02,11,27,9.50
2012,04,02,11,28,9.50
2012,04,02,11,29,9.50
2012,04,02,11,30,9.50
2012,04,02,11,31,9.50
2012,04,02,11,32,9.50
2012,04,02,11,33,9.50
2012,04,02,11,34,9.60
2012,04,02,11,35,9.60
2012,04,02,11,36,9.60
2012,04,02,11,37,9.60
2012,04,02,11,38,9.60
2012,04,02,11,39,9.60
2012,04,02,11,40,9.60
2012,04,02,11,41,9.60
2012,04,02,11,42,9.60
2012,04,02,11,43,9.60
2012,04,02,11,44,9.60
2012,04,02,11,45,9.60
2012,04,02,11,46,9.60
2012,04,02,11,47,9.70
2012,04,02,11,48,9.70
2012,04,02,11,49,9.70
2012,04,02,11,50,9.70
2012,04,02,11,51,9.70
2012,04,02,11,52,9.80
2012,04,02,11,53,9.80
2012,04,02,11,54,9.80
2012,04,02,11,55,9.80
2012,04,02,11,56,9.80
2012,04,02,11,57,9.90
2012,04,02,11,58,9.90
2012,04,02,11,59,9.90
2012,04,02,12,00,9.90
2012,04,02,12,01,10.10
2012,04,02,12,02,10.10
2012,04,02,12,03,10.20
2012,04,02,12,04,10.20
2012,04,02,12,05,10.20
2012,04,02,12,06,10.30
2012,04,02,12,07,10.30
2012,04,02,12,08,10.40
2012,04,02,12,09,10.40
2012,04,02,12,10,10.40
2012,04,02,12,11,10.40
2012,04,02,12,12,10.40
2012,04,02,12,13,10.30
2012,04,02,12,14,10.30
2012,04,02,12,15,10.40
2012,04,02,12,16,10.40
2012,04,02,12,17,10.30
2012,04,02,12,18,10.30
2012,04,02,12,19,10.30
2012,04,02,12,20,10.30
2012,04,02,12,21,10.40
2012,04,02,12,22,10.40
2012,04,02,12,23,10.40
2012,04,02,12,24,10.40
2012,04,02,12,25,10.40
2012,04,02,12,26,10.40
2012,04,02,12,27,10.40
2012,04,02,12,28,10.40
2012,04,02,12,29,10.40
2012,04,02,12,30,10.50
2012,04,02,12,31,10.60
2012,04,02,12,32,10.50
2012,04,02,12,33,10.50
2012,04,02,12,34,10.60
2012,04,02,12,35,10.60
2012,04,02,12,36,10.60
2012,04,02,12,37,10.60
2012,04,02,12,38,10.60
2012,04,02,12,39,10.60
2012,04,02,12,40,10.60
2012,04,02,12,41,10.70
2012,04,02,12,42,10.80
2012,04,02,12,43,10.90
2012,04,02,12,44,10.90
2012,04,02,12,45,10.90
2012,04,02,12,46,10.90
2012,04,02,12,47,10.90
2012,04,02,12,48,11.00
2012,04,02,12,49,11.10
2012,04,02,12,50,11.10
2012,04,02,12,51,11.10
2012,04,02,12,52,11.10
2012,04,02,12,53,11.10
2012,04,02,12,54,11.10
2012,04,02,12,55,11.10
2012,04,02,12,56,11.10
2012,04,02,12,57,11.00
2012,04,02,12,58,11.00
2012,04,02,12,59,11.10
2012,04,02,13,00,11.10
2012,04,02,13,01,11.20
2012,04,02,13,02,11.20
2012,04,02,13,03,11.20
2012,04,02,13,04,11.20
2012,04,02,13,05,11.20
2012,04,02,13,06,11.20
2012,04,02,13,07,11.20
2012,04,02,13,08,11.10
2012,04,02,13,09,11.10
2012,04,02,13,10,11.20
2012,04,02,13,11,11.20
2012,04,02,13,12,11.30
2012,04,02,13,13,11.30
2012,04,02,13,14,11.20
2012,04,02,13,15,11.20
2012,04,02,13,16,11.20
2012,04,02,13,17,11.30
2012,04,02,13,18,11.40
2012,04,02,13,19,11.40
2012,04,02,13,20,11.30
2012,04,02,13,21,11.40
2012,04,02,13,22,11.40
2012,04,02,13,23,11.40
2012,04,02,13,24,11.40
2012,04,02,13,25,11.40
2012,04,02,13,26,11.40
2012,04,02,13,27,11.40
2012,04,02,13,28,11.40
2012,04,02,13,29,11.40
2012,04,02,13,30,11.40
2012,04,02,13,31,11.50
2012,04,02,13,32,11.60
2012,04,02,13,33,11.60
2012,04,02,13,34,11.70
2012,04,02,13,35,11.60
2012,04,02,13,36,11.60
2012,04,02,13,37,11.60
2012,04,02,13,38,11.60
2012,04,02,13,39,11.60
2012,04,02,13,40,11.60
2012,04,02,13,41,11.70
2012,04,02,13,42,11.80
2012,04,02,13,43,11.80
2012,04,02,13,44,11.80
2012,04,02,13,45,11.90
2012,04,02,13,46,11.90
2012,04,02,13,47,11.90
2012,04,02,13,48,11.80
2012,04,02,13,49,11.80
2012,04,02,13,50,11.80
2012,04,02,13,51,11.80
2012,04,02,13,52,11.80
2012,04,02,13,53,11.90
2012,04,02,13,54,12.00
2012,04,02,13,55,12.00
2012,04,02,13,56,12.10
2012,04,02,13,57,12.20
2012,04,02,13,58,12.30
2012,04,02,13,59,12.30
2012,04,02,14,00,12.20
2012,04,02,14,01,12.10
2012,04,02,14,02,12.20
2012,04,02,14,03,12.10
2012,04,02,14,04,12.10
2012,04,02,14,05,12.20
2012,04,02,14,06,12.20
2012,04,02,14,07,12.20
2012,04,02,14,08,12.30
2012,04,02,14,09,12.30
2012,04,02,14,10,12.30
2012,04,02,14,11,12.30
2012,04,02,14,12,12.30
2012,04,02,14,13,12.40
2012,04,02,14,14,12.40
2012,04,02,14,15,12.40
2012,04,02,14,16,12.30
2012,04,02,14,17,12.30
2012,04,02,14,18,12.30
2012,04,02,14,19,12.30
2012,04,02,14,20,12.30
2012,04,02,14,21,12.30
2012,04,02,14,22,12.40
2012,04,02,14,23,12.40
2012,04,02,14,24,12.40
2012,04,02,14,25,12.40
2012,04,02,14,26,12.40
2012,04,02,14,27,12.30
2012,04,02,14,28,12.30
2012,04,02,14,29,12.30
2012,04,02,14,30,12.40
2012,04,02,14,31,12.50
2012,04,02,14,32,12.50
2012,04,02,14,33,12.40
2012,04,02,14,34,12.40
2012,04,02,14,35,12.40
2012,04,02,14,36,12.50
2012,04,02,14,37,12.50
2012,04,02,14,38,12.50
2012,04,02,14,39,12.60
2012,04,02,14,40,12.60
2012,04,02,14,41,12.50
2012,04,02,14,42,12.50
2012,04,02,14,43,12.40
2012,04,02,14,44,12.40
2012,04,02,14,45,12.50
2012,04,02,14,46,12.50
2012,04,02,14,47,12.50
2012,04,02,14,48,12.50
2012,04,02,14,49,12.50
2012,04,02,14,50,12.50
2012,04,02,14,51,12.50
2012,04,02,14,52,12.50
2012,04,02,14,53,12.60
2012,04,02,14,54,12.60
2012,04,02,14,55,12.60
2012,04,02,14,56,12.50
2012,04,02,14,57,12.50
2012,04,02,14,58,12.40
2012,04,02,14,59,12.40
2012,04,02,15,00,12.50
2012,04,02,15,01,12.40
2012,04,02,15,02,12.40
2012,04,02,15,03,12.40
2012,04,02,15,04,12.50
2012,04,02,15,05,12.50
2012,04,02,15,06,12.60
2012,04,02,15,07,12.60
2012,04,02,15,08,12.70
2012,04,02,15,09,12.70
2012,04,02,15,10,12.70
2012,04,02,15,11,12.60
2012,04,02,15,12,12.60
2012,04,02,15,13,12.60
2012,04,02,15,14,12.70
2012,04,02,15,15,12.80
2012,04,02,15,16,12.80
2012,04,02,15,17,12.80
2012,04,02,15,18,12.70
2012,04,02,15,19,12.70
2012,04,02,15,20,12.70
2012,04,02,15,21,12.70
2012,04,02,15,22,12.70
2012,04,02,15,23,12.80
2012,04,02,15,24,12.80
2012,04,02,15,25,12.80
2012,04,02,15,26,12.80
2012,04,02,15,27,12.80
2012,04,02,15,28,12.80
2012,04,02,15,29,12.80
2012,04,02,15,30,12.80
2012,04,02,15,31,12.80
2012,04,02,15,32,12.80
2012,04,02,15,33,12.80
2012,04,02,15,34,12.90
2012,04,02,15,35,12.90
2012,04,02,15,36,12.90
2012,04,02,15,37,12.90
2012,04,02,15,38,12.80
2012,04,02,15,39,12.80
2012,04,02,15,40,12.80
2012,04,02,15,41,12.80
2012,04,02,15,42,12.70
2012,04,02,15,43,12.80
2012,04,02,15,44,12.80
2012,04,02,15,45,12.70
2012,04,02,15,46,12.70
2012,04,02,15,47,12.60
2012,04,02,15,48,12.50
2012,04,02,15,49,12.50
2012,04,02,15,50,12.60
2012,04,02,15,51,12.60
2012,04,02,15,52,12.60
2012,04,02,15,53,12.60
2012,04,02,15,54,12.70
2012,04,02,15,55,12.70
2012,04,02,15,56,12.70
2012,04,02,15,57,12.70
2012,04,02,15,58,12.70
2012,04,02,15,59,12.70
2012,04,02,16,00,12.60
2012,04,02,16,01,12.60
2012,04,02,16,02,12.50
2012,04,02,16,03,12.50
2012,04,02,16,04,12.40
2012,04,02,16,05,12.50
2012,04,02,16,06,12.50
2012,04,02,16,07,12.50
2012,04,02,16,08,12.50
2012,04,02,16,09,12.50
2012,04,02,16,10,12.60
2012,04,02,16,11,12.60
2012,04,02,16,12,12.60
2012,04,02,16,13,12.60
2012,04,02,16,14,12.60
2012,04,02,16,15,12.70
2012,04,02,16,16,12.70
2012,04,02,16,17,12.70
2012,04,02,16,18,12.80
2012,04,02,16,19,12.70
2012,04,02,16,20,12.70
2012,04,02,16,21,12.70
2012,04,02,16,22,12.80
2012,04,02,16,23,12.80
2012,04,02,16,24,12.80
2012,04,02,16,25,12.80
2012,04,02,16,26,12.80
2012,04,02,16,27,12.80
2012,04,02,16,28,12.80
2012,04,02,16,29,12.80
2012,04,02,16,30,12.70
2012,04,02,16,31,12.70
2012,04,02,16,32,12.70
2012,04,02,16,33,12.70
2012,04,02,16,34,12.70
2012,04,02,16,35,12.70
2012,04,02,16,36,12.70
2012,04,02,16,37,12.80
2012,04,02,16,38,12.80
2012,04,02,16,39,12.80
2012,04,02,16,40,12.80
2012,04,02,16,41,12.80
2012,04,02,16,42,12.80
2012,04,02,16,43,12.80
2012,04,02,16,44,12.80
2012,04,02,16,45,12.80
2012,04,02,16,46,12.80
2012,04,02,16,47,12.80
2012,04,02,16,48,12.80
2012,04,02,16,49,12.80
2012,04,02,16,50,12.80
2012,04,02,16,51,12.80
2012,04,02,16,52,12.80
2012,04,02,16,53,12.80
2012,04,02,16,54,12.80
2012,04,02,16,55,12.80
2012,04,02,16,56,12.80
2012,04,02,16,57,12.80
2012,04,02,16,58,12.80
2012,04,02,16,59,12.80
2012,04,02,17,00,12.80
2012,04,02,17,01,12.80
2012,04,02,17,02,12.90
2012,04,02,17,03,12.80
2012,04,02,17,04,12.80
2012,04,02,17,05,12.80
2012,04,02,17,06,12.80
2012,04,02,17,07,12.70
2012,04,02,17,08,12.70
2012,04,02,17,09,12.70
2012,04,02,17,10,12.70
2012,04,02,17,11,12.60
2012,04,02,17,12,12.60
2012,04,02,17,13,12.60
2012,04,02,17,14,12.60
2012,04,02,17,15,12.60
2012,04,02,17,16,12.60
2012,04,02,17,17,12.60
2012,04,02,17,18,12.60
2012,04,02,17,19,12.60
2012,04,02,17,20,12.60
2012,04,02,17,21,12.50
2012,04,02,17,22,12.50
2012,04,02,17,23,12.60
2012,04,02,17,24,12.60
2012,04,02,17,25,12.70
2012,04,02,17,26,12.70
2012,04,02,17,27,12.60
2012,04,02,17,28,12.60
2012,04,02,17,29,12.60
2012,04,02,17,30,12.60
2012,04,02,17,31,12.60
2012,04,02,17,32,12.60
2012,04,02,17,33,12.60
2012,04,02,17,34,12.60
2012,04,02,17,35,12.70
2012,04,02,17,36,12.80
2012,04,02,17,37,12.80
2012,04,02,17,38,12.80
2012,04,02,17,39,12.80
2012,04,02,17,40,12.80
2012,04,02,17,41,12.80
2012,04,02,17,42,12.80
2012,04,02,17,43,12.70
2012,04,02,17,44,12.70
2012,04,02,17,45,12.70
2012,04,02,17,46,12.70
2012,04,02,17,47,12.70
2012,04,02,17,48,12.70
2012,04,02,17,49,12.70
2012,04,02,17,50,12.70